Location: Unspecified
(0.0000°N, 0.0000°E)
Time: 09:09:04
(UTC+00:00)

deb r/b Ablestar - Pass Details

Date: 17 February 2026
Orbit: 889 x 1146 km, 67.2° (Epoch: 10 March)

Event Time Altitude Azimuth Distance (km) Brightness Sun altitude
Exits shadow 03:39:30 30° 38° (NE) 1,901 ? -37.6°
Maximum altitude 03:41:39 36° 71° (ENE) 1,724 ? -37.1°
Drops below altitude 10° 03:48:08 10° 135° (SE) 3,038 ? -35.5°
Sets 03:51:05 0° 143° (SE) 3,999 ? -34.8°
